Location: Berlise
(49.6641°N, 4.1077°E)
Time: 19:32:44
(UTC+00:00)

SL-4 R/B - Pass Details

Date: 27 January 2021
Orbit: 427 x 664 km, 51.6° (Epoch: 27 February)

Event Time Altitude Azimuth Distance (km) Brightness Sun altitude
Exits shadow 06:30:53 10° 269° (W) 1,717 3.9 -8.5°
Reaches altitude 10° 06:30:55 10° 269° (W) 1,704 3.9 -8.5°
Maximum altitude 06:34:46 68° 353° (N) 572 2.0 -7.9°
Drops below altitude 10° 06:38:58 10° 77° (ENE) 1,854 5.7 -7.3°
Sets 06:41:20 0° 80° (E) 2,795 6.8 -6.9°
